This demonstration page uses our WeatherBlox Daily Observations layout. Learn more.

Left ArrowRight Arrow

53.62937, 11.41316

Hourly Observations for March 4, 2018

Temp ( °F °C ) Dew Point ( °F °C ) Humidity (%) Winds ( mph kmh ) Pressure ( in mb ) Visibility ( mi km ) Precip ( " mm )
6:50 am 06:50 Mostly Cloudy 16 -9 10 -12 79 79 E 7 11 29.68 1005 30 48 N/A
7:20 am 07:20 Mostly Cloudy 18 -8 10 -12 73 73 E 9 15 29.65 1004 30 48 N/A
7:50 am 07:50 Mostly Cloudy 18 -8 10 -12 73 73 E 8 13 29.65 1004 30 48 N/A
8:20 am 08:20 Mostly Sunny 19 -7 12 -11 73 73 E 8 13 29.65 1004 7 11 N/A
8:50 am 08:50 Mostly Sunny 19 -7 12 -11 73 73 E 7 11 29.65 1004 7 11 N/A
9:20 am 09:20 Mostly Cloudy 21 -6 12 -11 68 68 ESE 7 11 29.65 1004 30 48 N/A
9:50 am 09:50 Mostly Cloudy 23 -5 12 -11 63 63 ESE 7 11 29.65 1004 30 48 N/A
10:20 am 10:20 Mostly Cloudy 23 -5 12 -11 63 63 ESE 8 13 29.65 1004 30 48 N/A
10:50 am 10:50 Mostly Cloudy 23 -5 12 -11 63 63 ESE 9 15 29.62 1003 30 48 N/A
11:20 am 11:20 Mostly Cloudy 27 -3 14 -10 59 59 ESE 8 13 29.62 1003 30 48 N/A
11:50 am 11:50 Mostly Sunny 27 -3 14 -10 59 59 ESE 8 13 29.62 1003 7 11 N/A
12:20 pm 12:20 Partly Cloudy 28 -2 14 -10 55 55 ESE 8 13 29.62 1003 30 48 N/A
12:50 pm 12:50 Mostly Sunny 30 -1 16 -9 55 55 ESE 8 13 29.62 1003 7 11 N/A
1:20 pm 13:20 Mostly Sunny 30 -1 16 -9 55 55 E 9 15 29.59 1002 7 11 N/A
1:50 pm 13:50 Mostly Sunny 32 0 16 -9 51 51 E 9 15 29.59 1002 7 11 N/A
2:20 pm 14:20 Mostly Sunny 34 1 18 -8 51 51 E 8 13 29.59 1002 7 11 N/A
2:50 pm 14:50 Mostly Sunny 34 1 18 -8 51 51 ESE 9 15 29.56 1001 7 11 N/A
3:20 pm 15:20 Mostly Sunny 34 1 18 -8 51 51 ESE 9 15 29.56 1001 7 11 N/A
3:50 pm 15:50 Mostly Sunny 36 2 19 -7 52 52 ESE 6 9 29.56 1001 7 11 N/A
4:20 pm 16:20 Mostly Sunny 34 1 19 -7 56 56 E 7 11 29.56 1001 7 11 N/A
4:50 pm 16:50 Partly Cloudy 34 1 19 -7 56 56 ESE 6 9 29.56 1001 30 48 N/A
5:20 pm 17:20 Mostly Cloudy 34 1 19 -7 56 56 ESE 6 9 29.53 1000 30 48 N/A
5:50 pm 17:50 Mostly Cloudy 34 1 21 -6 60 60 ESE 6 9 29.53 1000 30 48 N/A
6:20 pm 18:20 Mostly Cloudy 34 1 21 -6 60 60 ESE 7 11 29.53 1000 30 48 N/A

Powered by AerisWeather